Albany, NY

8:13 PM EST on February 22, 2018 (GMT -0500)
Albany International

Weather History for KALB - October, 2013

Change the Weather History Date:

Saturday, October 19, 2013

  Actual Average Record
Temperature  
Mean Temperature 52 °F 48 °F  
Max Temperature 64 °F 59 °F 79 °F (1945)
Min Temperature 40 °F 38 °F 20 °F (1974)
Degree Days  
Heating Degree Days 13 17  
Month to date heating degree days 127 255  
Since 1 July heating degree days 299 422  
Cooling Degree Days 0 0  
Month to date cooling degree days 0 0  
Year to date cooling degree days 763 594  
Growing Degree Days 2 (Base 50)    
Moisture  
Dew Point 40 °F    
Average Humidity 66    
Maximum Humidity 92    
Minimum Humidity 39    
Precipitation  
Precipitation 0.02 in 0.12 in 2.28 in (2012)
Month to date precipitation 1.99 2.31  
Year to date precipitation 38.31 31.76  
Snow  
Snow 0.00 in 0.00 in T in (1992)
Month to date snowfall 0.0 0.2  
Since 1 July snowfall 0.0 0.2  
Since 1 September snowfall 0.0 0.2  
Snow Depth 0.00 in    
Sea Level Pressure  
Sea Level Pressure 29.86 in    
Wind  
Wind Speed 8 mph (South)    
Max Wind Speed 21 mph    
Max Gust Speed 26 mph    
Visibility 10 miles    
Events Rain    
T = Trace of Precipitation, MM = Missing Value Source: NWS Daily Summary

Daily Weather History Graph

Daily Weather History Graph

Search for Another Location

Airport or City:

Trip Planner

Search our weather history database for the weather conditions in past years. The results will help you decide how hot, cold, wet, or windy it might be!

Date:

Astronomy

Oct. 19, 2013 Rise Set
Actual Time 7:13 AM EDT 6:06 PM EDT
Civil Twilight 6:44 AM EDT 6:34 PM EDT
Nautical Twilight 6:11 AM EDT 7:07 PM EDT
Astronomical Twilight 5:39 AM EDT 7:40 PM EDT
Moon 6:30 PM EDT (10/19) 7:49 AM EDT (10/19)
Length of Visible Light 11h 49m
Length of Day
10h 52m
Waxing Gibbous, 99% of the Moon is Illuminated
Oct 19
Waxing Gibbous
Oct 26
Last Quarter
Nov 3
New
Nov 10
First Quarter
Nov 17
Full

Hourly Weather History & Observations

Time (EDT) Temp. Windchill Dew Point Humidity Pressure Visibility Wind Dir Wind Speed Gust Speed Precip Events Conditions
12:51 AM 41.0 °F - 37.0 °F 86% 29.96 in 10.0 mi Calm Calm - N/A   Partly Cloudy
1:51 AM 43.0 °F - 37.9 °F 82% 29.95 in 10.0 mi Calm Calm - N/A   Mostly Cloudy
2:51 AM 43.0 °F - 37.9 °F 82% 29.95 in 10.0 mi Calm Calm - N/A   Partly Cloudy
3:51 AM 43.0 °F - 39.0 °F 86% 29.95 in 10.0 mi Calm Calm - N/A   Partly Cloudy
4:50 AM 42.1 °F - 37.9 °F 85% 29.95 in 10.0 mi Calm Calm - N/A   Mostly Cloudy
5:51 AM 39.9 °F 37.8 °F 37.0 °F 89% 29.96 in 10.0 mi South 3.5 mph - N/A   Mostly Cloudy
6:51 AM 42.1 °F - 37.9 °F 85% 29.95 in 10.0 mi Calm Calm - N/A   Mostly Cloudy
7:51 AM 44.1 °F - 39.0 °F 82% 29.95 in 10.0 mi Calm Calm - N/A   Mostly Cloudy
8:51 AM 48.0 °F - 41.0 °F 77% 29.96 in 10.0 mi SSE 6.9 mph - N/A   Mostly Cloudy
9:51 AM 51.1 °F - 41.0 °F 68% 29.96 in 10.0 mi South 8.1 mph - N/A   Scattered Clouds
10:51 AM 55.9 °F - 42.1 °F 60% 29.94 in 10.0 mi South 6.9 mph - N/A   Scattered Clouds
11:51 AM 59.0 °F - 42.1 °F 53% 29.92 in 10.0 mi South 8.1 mph - N/A   Mostly Cloudy
12:51 PM 63.0 °F - 42.1 °F 46% 29.88 in 10.0 mi South 10.4 mph - N/A   Mostly Cloudy
1:51 PM 63.0 °F - 37.9 °F 40% 29.86 in 10.0 mi South 12.7 mph 20.7 mph N/A   Mostly Cloudy
2:51 PM 63.0 °F - 37.0 °F 38% 29.83 in 10.0 mi South 17.3 mph 23.0 mph N/A   Overcast
3:51 PM 62.1 °F - 37.0 °F 39% 29.81 in 10.0 mi South 13.8 mph 25.3 mph N/A   Overcast
4:51 PM 62.1 °F - 37.0 °F 39% 29.79 in 10.0 mi SSE 10.4 mph 20.7 mph N/A   Overcast
5:51 PM 60.1 °F - 37.9 °F 44% 29.79 in 10.0 mi South 16.1 mph 20.7 mph 0.00 in Rain Light Rain
6:51 PM 55.9 °F - 44.1 °F 64% 29.78 in 10.0 mi South 6.9 mph - 0.02 in Rain Light Rain
7:51 PM 55.9 °F - 43.0 °F 62% 29.75 in 10.0 mi SSE 8.1 mph - 0.00 in   Overcast
8:51 PM 57.0 °F - 42.1 °F 57% 29.73 in 10.0 mi SSE 11.5 mph - N/A   Overcast
9:51 PM 55.9 °F - 43.0 °F 62% 29.72 in 10.0 mi South 11.5 mph - N/A   Mostly Cloudy
10:51 PM 55.9 °F - 44.1 °F 64% 29.72 in 10.0 mi South 12.7 mph 20.7 mph 0.00 in Rain Light Rain
11:51 PM 55.0 °F - 46.0 °F 72% 29.71 in 10.0 mi South 15.0 mph 20.7 mph 0.00 in   Mostly Cloudy